When you browse on this site, cookies collect data to enhance your experience and personalize the content and advertising you see.
Visit our Privacy Policy to learn more. By continuing to use the site, you agree to this use of cookies and data.
  • In Romania
  • List of Countries
  • For 7 days
  • Water Temperature
  • Satellite Maps
  • Weather Map
  • Weather Widgets
  • user-avatar
    Login

    Hourly Weather Gorelskiy

    Today, 24 March, Sunday

    Time Temperature Precipitation Wind Pressure Humidity
    00:00 -1°C° 0.1 mm 3 mps 750 mmHg 95%
    01:00 -2°C° 0 mm 3 mps 750 mmHg 95%
    02:00 -2°C° 0 mm 3 mps 750 mmHg 95%
    03:00 -6°C° 0 mm 3 mps 750 mmHg 92%
    04:00 -7°C° 0 mm 3 mps 750 mmHg 92%
    05:00 -8°C° 0 mm 3 mps 751 mmHg 91%
    06:00 -8°C° 0 mm 3 mps 751 mmHg 91%
    07:00 -7°C° 0 mm 3 mps 751 mmHg 90%
    08:00 -6°C° 0 mm 3 mps 751 mmHg 89%
    09:00 -4°C° 0 mm 2 mps 751 mmHg 88%
    10:00 -3°C° 0 mm 2 mps 750 mmHg 92%
    11:00 -2°C° 0 mm 2 mps 750 mmHg 95%
    12:00 +1°C° 0 mm 1 mps 750 mmHg 98%
    13:00 +1°C° 0 mm 1 mps 749 mmHg 98%
    14:00 +1°C° 0 mm 1 mps 749 mmHg 99%
    15:00 +1°C° 0 mm 1 mps 749 mmHg 100%
    16:00 +1°C° 0 mm 1 mps 748 mmHg 99%
    17:00 0°C° 0 mm 1 mps 748 mmHg 98%
    18:00 0°C° 0 mm 1 mps 748 mmHg 98%
    19:00 0°C° 0 mm 1 mps 747 mmHg 97%
    20:00 -3°C° 0 mm 2 mps 747 mmHg 97%
    21:00 -3°C° 0 mm 2 mps 746 mmHg 96%
    22:00 -3°C° 0 mm 2 mps 746 mmHg 96%
    23:00 -4°C° 0 mm 2 mps 745 mmHg 95%

    Tomorrow, 25 March, Monday

    Time Temperature Precipitation Wind Pressure Humidity
    00:00 -4°C° 0 mm 2 mps 745 mmHg 95%
    01:00 -5°C° 0 mm 3 mps 745 mmHg 95%
    02:00 -5°C° 0 mm 3 mps 744 mmHg 96%
    03:00 -5°C° 0 mm 3 mps 744 mmHg 96%
    04:00 -4°C° 0 mm 4 mps 744 mmHg 95%
    05:00 -3°C° 0 mm 4 mps 743 mmHg 95%
    06:00 -2°C° 0 mm 4 mps 743 mmHg 94%
    07:00 -2°C° 0 mm 5 mps 743 mmHg 93%
    08:00 -4°C° 0 mm 5 mps 744 mmHg 92%
    09:00 -4°C° 0 mm 5 mps 744 mmHg 91%
    10:00 -2°C° 0 mm 5 mps 744 mmHg 94%
    11:00 -2°C° 0 mm 5 mps 744 mmHg 96%
    12:00 -1°C° 0 mm 5 mps 745 mmHg 98%
    13:00 -1°C° 0 mm 5 mps 745 mmHg 99%
    14:00 -1°C° 0 mm 4 mps 745 mmHg 99%
    15:00 -1°C° 0 mm 4 mps 746 mmHg 99%
    16:00 -1°C° 0 mm 4 mps 746 mmHg 96%
    17:00 -2°C° 0 mm 4 mps 747 mmHg 93%
    18:00 -1°C° 0 mm 3 mps 747 mmHg 89%
    19:00 -2°C° 0 mm 3 mps 747 mmHg 89%
    20:00 -4°C° 0 mm 3 mps 748 mmHg 89%
    21:00 -5°C° 0 mm 3 mps 748 mmHg 88%
    22:00 -4°C° 0 mm 2 mps 748 mmHg 87%
    23:00 -5°C° 0 mm 2 mps 748 mmHg 86%

    Day after tomorrow, 26 March, Tuesday

    Time Temperature Precipitation Wind Pressure Humidity
    00:00 -5°C° 0 mm 2 mps 749 mmHg 85%
    01:00 -5°C° 0 mm 2 mps 749 mmHg 85%
    02:00 -4°C° 0 mm 2 mps 749 mmHg 84%
    03:00 -5°C° 0 mm 3 mps 749 mmHg 84%
    04:00 -5°C° 0 mm 3 mps 749 mmHg 84%
    05:00 -5°C° 0 mm 3 mps 748 mmHg 84%
    06:00 -5°C° 0 mm 3 mps 748 mmHg 85%
    07:00 -4°C° 0 mm 4 mps 748 mmHg 86%
    08:00 -2°C° 0 mm 4 mps 747 mmHg 87%
    09:00 -1°C° 0 mm 5 mps 747 mmHg 88%
    10:00 -1°C° 0.4 mm 5 mps 747 mmHg 91%
    11:00 -1°C° 0.4 mm 5 mps 746 mmHg 94%
    12:00 -1°C° 0.4 mm 5 mps 746 mmHg 97%
    13:00 0°C° 0.3 mm 5 mps 745 mmHg 98%
    14:00 0°C° 0.3 mm 5 mps 745 mmHg 99%
    15:00 0°C° 0.3 mm 5 mps 744 mmHg 100%
    16:00 0°C° 0.1 mm 5 mps 744 mmHg 99%
    17:00 0°C° 0.1 mm 4 mps 744 mmHg 99%
    18:00 +1°C° 0.1 mm 3 mps 744 mmHg 99%
    19:00 +1°C° 0.1 mm 3 mps 744 mmHg 99%
    20:00 +1°C° 0.1 mm 3 mps 744 mmHg 98%
    21:00 +1°C° 0.1 mm 2 mps 744 mmHg 98%
    22:00 0°C° 0.2 mm 3 mps 744 mmHg 98%
    23:00 0°C° 0.2 mm 3 mps 744 mmHg 99%

    27 March, Wednesday

    Time Temperature Precipitation Wind Pressure Humidity
    00:00 0°C° 0.2 mm 3 mps 744 mmHg 99%
    01:00 0°C° 0.1 mm 3 mps 744 mmHg 97%
    02:00 -1°C° 0.1 mm 3 mps 745 mmHg 96%
    03:00 -1°C° 0.1 mm 3 mps 745 mmHg 94%
    04:00 -2°C° 0 mm 3 mps 745 mmHg 94%
    05:00 -4°C° 0 mm 3 mps 745 mmHg 93%
    06:00 -5°C° 0 mm 3 mps 746 mmHg 93%
    07:00 -4°C° 0 mm 3 mps 746 mmHg 92%
    08:00 -4°C° 0 mm 3 mps 747 mmHg 91%
    09:00 -2°C° 0 mm 3 mps 747 mmHg 90%
    10:00 -1°C° 0 mm 3 mps 748 mmHg 93%
    11:00 -1°C° 0 mm 2 mps 748 mmHg 96%
    12:00 +1°C° 0 mm 2 mps 749 mmHg 99%
    13:00 +1°C° 0 mm 2 mps 749 mmHg 99%
    14:00 +2°C° 0 mm 1 mps 749 mmHg 99%
    15:00 +2°C° 0 mm 1 mps 749 mmHg 98%
    16:00 +2°C° 0 mm 1 mps 749 mmHg 93%
    17:00 +1°C° 0 mm 1 mps 750 mmHg 88%
    18:00 0°C° 0 mm 1 mps 750 mmHg 82%
    19:00 0°C° 0 mm 1 mps 750 mmHg 82%
    20:00 -1°C° 0 mm 1 mps 751 mmHg 82%
    21:00 -3°C° 0 mm 2 mps 751 mmHg 81%
    22:00 -4°C° 0 mm 2 mps 751 mmHg 82%
    23:00 -4°C° 0 mm 2 mps 751 mmHg 83%

    28 March, Thursday

    Time Temperature Precipitation Wind Pressure Humidity
    00:00 -4°C° 0 mm 2 mps 751 mmHg 84%
    01:00 -4°C° 0 mm 2 mps 751 mmHg 85%
    02:00 -4°C° 0 mm 2 mps 751 mmHg 86%
    03:00 -5°C° 0 mm 3 mps 752 mmHg 87%
    04:00 -5°C° 0 mm 3 mps 752 mmHg 87%
    05:00 -6°C° 0 mm 3 mps 752 mmHg 88%
    06:00 -6°C° 0 mm 3 mps 753 mmHg 89%
    07:00 -5°C° 0 mm 3 mps 753 mmHg 89%
    08:00 -4°C° 0 mm 4 mps 753 mmHg 88%
    09:00 -5°C° 0 mm 5 mps 754 mmHg 88%
    10:00 -4°C° 0 mm 5 mps 754 mmHg 89%
    11:00 -2°C° 0 mm 5 mps 754 mmHg 90%
    12:00 -2°C° 0 mm 5 mps 755 mmHg 91%
    13:00 -1°C° 0.1 mm 5 mps 755 mmHg 91%
    14:00 -1°C° 0.1 mm 5 mps 755 mmHg 92%
    15:00 -1°C° 0.1 mm 4 mps 755 mmHg 92%
    16:00 -1°C° 0 mm 4 mps 755 mmHg 90%
    17:00 -1°C° 0 mm 4 mps 756 mmHg 88%
    18:00 -1°C° 0 mm 4 mps 756 mmHg 85%
    19:00 -2°C° 0 mm 4 mps 756 mmHg 86%
    20:00 -3°C° 0 mm 4 mps 757 mmHg 87%
    21:00 -4°C° 0 mm 4 mps 757 mmHg 88%
    22:00 -4°C° 0 mm 4 mps 757 mmHg 88%
    23:00 -4°C° 0 mm 3 mps 758 mmHg 88%

    29 March, Friday

    Time Temperature Precipitation Wind Pressure Humidity
    00:00 -5°C° 0 mm 3 mps 758 mmHg 88%
    01:00 -5°C° 0 mm 3 mps 758 mmHg 88%
    02:00 -6°C° 0 mm 3 mps 758 mmHg 87%
    03:00 -7°C° 0 mm 3 mps 758 mmHg 87%
    04:00 -7°C° 0 mm 3 mps 757 mmHg 86%
    05:00 -7°C° 0 mm 3 mps 757 mmHg 86%
    06:00 -6°C° 0 mm 3 mps 757 mmHg 85%
    07:00 -5°C° 0 mm 3 mps 757 mmHg 83%
    08:00 -4°C° 0 mm 4 mps 757 mmHg 82%
    09:00 -3°C° 0 mm 4 mps 756 mmHg 80%
    10:00 -2°C° 0 mm 4 mps 756 mmHg 82%
    11:00 -1°C° 0 mm 4 mps 756 mmHg 83%
    12:00 0°C° 0 mm 5 mps 755 mmHg 84%
    13:00 0°C° 0.1 mm 5 mps 754 mmHg 87%
    14:00 0°C° 0.1 mm 5 mps 754 mmHg 89%
    15:00 0°C° 0.1 mm 5 mps 753 mmHg 92%
    16:00 0°C° 0.1 mm 5 mps 753 mmHg 92%
    17:00 0°C° 0.1 mm 5 mps 752 mmHg 92%
    18:00 -1°C° 0.1 mm 6 mps 752 mmHg 92%
    19:00 -1°C° 0.1 mm 6 mps 752 mmHg 92%
    20:00 -1°C° 0.1 mm 6 mps 752 mmHg 92%
    21:00 -1°C° 0.1 mm 6 mps 751 mmHg 93%
    22:00 0°C° 0.1 mm 5 mps 751 mmHg 93%
    23:00 0°C° 0.1 mm 5 mps 751 mmHg 94%
    Show more